Location: Unspecified
(0.0000°N, 0.0000°E)
Time: 20:00:59
(UTC+00:00)

Vanguard 2 Rocket - Pass Details

Date: 11 October 2022
Orbit: 553 x 3312 km, 32.9° (Epoch: 30 November)

Event Time Altitude Azimuth Distance (km) Brightness Sun altitude
Exits shadow 05:17:32 - 291° (WNW) 2,420 8.5 -7.3°
Reaches altitude 10° 05:18:07 10° 289° (WNW) 2,188 8.2 -7.1°
Maximum altitude 05:22:36 43° 217° (SW) 820 6.5 -6.0°
Drops below altitude 10° 05:26:20 10° 143° (SE) 1,819 9.2 -5.1°
Sets 05:28:34 0° 136° (SE) 2,742 10.3 -4.5°
